Location: *
(41.0833°N, 73.4167°W)
Time: 14:40:40
(UTC+00:00)

GP-B - Pass Details

Date: 22 October 2019
Orbit: 632 x 635 km, 89.8° (Epoch: 17 November)

Event Time Altitude Azimuth Distance (km) Brightness Sun altitude
Rises 09:53:02 0° 183° (S) 2,916 6.5 -15.7°
Reaches altitude 10° 09:55:15 10° 186° (S) 2,013 5.6 -15.3°
Maximum altitude 09:59:40 68° 269° (W) 686 3.0 -14.4°
Drops below altitude 10° 10:04:06 10° 353° (N) 2,028 5.6 -13.6°
Sets 10:06:21 0° 356° (N) 2,941 6.5 -13.2°
